YO7MGN Weather Reports


Display with metric or nautical units.
time (UTC)temp
F
wind
direction
speed
MPH
gust
MPH
rain 1hr
in
rain 24hr
in
rain mn
in
humidity
%
barometer
mb
20260508001600 61 173 0.0 0.0 0.00 0.00 0.00 78 1015.1
20260508000058 62 173 0.0 0.0 0.00 0.00 0.00 78 1015.2
20260507234558 62 173 0.0 0.0 0.00 0.00 0.00 77 1015.3
20260507233059 63 173 0.0 0.0 0.00 0.00 0.00 76 1015.4
20260507231556 63 173 0.0 0.0 0.00 0.00 0.00 76 1015.5
20260507230107 63 173 0.0 0.0 0.00 0.00 0.00 76 1015.7
20260507224554 63 173 0.0 0.0 0.00 0.00 0.00 76 1015.7
20260507223050 63 173 0.0 0.0 0.00 0.00 0.00 77 1015.8
20260507221549 64 173 0.0 0.0 0.00 0.00 0.00 77 1015.7
20260507220053 64 173 0.0 0.0 0.00 0.00 0.00 76 1015.4
20260507214545 64 173 0.0 0.0 0.00 0.00 0.00 74 1015.4
20260507213044 64 173 0.0 0.0 0.00 0.00 0.00 73 1015.4
20260507211543 65 173 0.0 0.0 0.00 0.00 0.00 72 1015.3
20260507210040 65 173 0.0 0.0 0.00 0.00 0.00 72 1015.2
20260507204536 66 173 0.0 0.0 0.00 0.00 0.00 71 1015.2
20260507203105 67 173 0.0 0.0 0.00 0.00 0.00 71 1015.3
20260507201535 67 173 0.0 0.0 0.00 0.00 0.00 71 1015.2
20260507200035 67 173 0.0 0.0 0.00 0.00 0.00 69 1015.1
20260507194535 68 173 0.0 0.0 0.00 0.00 0.00 66 1015.1
20260507193038 68 173 0.0 0.0 0.00 0.00 0.00 65 1015.4
20260507191634 68 173 0.0 0.0 0.00 0.00 0.00 66 1015.3
20260507190032 69 173 0.0 0.0 0.00 0.00 0.00 63 1015.1
20260507184532 69 173 0.0 0.0 0.00 0.00 0.00 62 1014.9
20260507183033 69 173 0.0 0.0 0.00 0.00 0.00 61 1014.8
20260507181531 69 173 0.0 0.0 0.00 0.00 0.00 60 1014.6
20260507180034 70 173 0.0 0.0 0.00 0.00 0.00 60 1014.7
20260507174539 70 173 0.0 0.0 0.00 0.00 0.00 59 1014.6
20260507173051 70 173 0.0 0.0 0.00 0.00 0.00 60 1014.6
20260507171530 71 173 0.0 0.0 0.00 0.00 0.00 58 1014.5
20260507170035 71 173 0.0 0.0 0.00 0.00 0.00 57 1014.6
20260507164532 71 173 0.0 0.0 0.00 0.00 0.00 56 1014.5
20260507163028 72 11 0.0 0.0 0.00 0.00 0.00 56 1014.5
20260507161534 72 32 0.0 0.0 0.00 0.00 0.00 55 1014.5
20260507160026 72 32 0.0 0.0 0.00 0.00 0.00 57 1014.5
20260507154527 72 32 0.0 0.0 0.00 0.00 0.00 56 1014.5
20260507153025 72 32 0.0 0.0 0.00 0.00 0.00 56 1014.4
20260507151526 72 32 0.0 0.0 0.00 0.00 0.00 56 1014.5
20260507150036 72 32 0.0 0.0 0.00 0.00 0.00 56 1014.6
20260507144525 72 32 0.0 0.0 0.00 0.00 0.00 55 1014.6
20260507143025 72 32 0.0 0.0 0.00 0.00 0.00 55 1014.6
20260507141528 73 32 0.0 0.0 0.00 0.00 0.00 54 1014.6
20260507140023 73 32 0.0 0.0 0.00 0.00 0.00 55 1014.6
20260507134523 73 32 0.0 0.0 0.00 0.00 0.00 54 1014.7
20260507133025 73 32 0.0 0.0 0.00 0.00 0.00 55 1014.7
20260507131521 73 32 0.0 0.0 0.00 0.00 0.00 56 1014.8
20260507130020 74 174 0.0 0.0 0.00 0.00 0.00 53 1015.0
20260507124619 74 179 0.0 0.0 0.00 0.00 0.00 51 1015.1
20260507123026 74 175 0.0 0.0 0.00 0.00 0.00 51 1015.2
20260507121519 74 110 0.0 0.0 0.00 0.00 0.00 51 1015.2
20260507120018 74 172 0.0 0.0 0.00 0.00 0.00 51 1015.3
20260507114517 74 175 0.0 0.0 0.00 0.00 0.00 50 1015.3
20260507113016 75 172 0.0 0.0 0.00 0.00 0.00 49 1015.3
20260507111515 74 171 0.0 0.0 0.00 0.00 0.00 49 1015.4
20260507110013 74 207 0.0 0.0 0.00 0.00 0.00 48 1015.4
20260507104512 74 116 0.0 0.0 0.00 0.00 0.00 50 1015.5
20260507103012 74 148 0.0 0.0 0.00 0.00 0.00 47 1015.6
20260507101511 74 28 0.0 0.0 0.00 0.00 0.00 47 1015.7
20260507100009 73 167 0.0 0.0 0.00 0.00 0.00 47 1015.7
20260507094506 72 155 0.0 0.0 0.00 0.00 0.00 50 1015.7
20260507093005 72 146 0.0 0.0 0.00 0.00 0.00 50 1015.6
20260507091505 72 145 0.0 0.0 0.00 0.00 0.00 50 1015.7
20260507090006 72 177 0.0 0.0 0.00 0.00 0.00 50 1015.6
20260507084502 72 126 0.0 0.0 0.00 0.00 0.00 50 1015.6
20260507083002 72 134 0.0 0.0 0.00 0.00 0.00 50 1015.5
20260507081558 71 5 0.0 0.0 0.00 0.00 0.00 52 1015.5
20260507080056 70 5 0.0 0.0 0.00 0.00 0.00 53 1015.5
20260507074554 70 5 0.0 0.0 0.00 0.00 0.00 54 1015.4
20260507073103 70 360 0.0 0.0 0.00 0.00 0.00 52 1015.5
20260507071550 69 11 0.0 0.0 0.00 0.00 0.00 54 1015.5
20260507070055 67 5 0.0 0.0 0.00 0.00 0.00 55 1015.5
20260507064550 66 360 0.0 0.0 0.00 0.00 0.00 56 1015.5
20260507063039 64 40 0.0 1.0 0.00 0.00 0.00 59 1015.5
20260507061538 63 342 0.0 0.0 0.00 0.00 0.00 58 1015.6
20260507060034 62 17 0.0 3.0 0.00 0.00 0.00 59 1015.5
20260507054533 61 360 0.0 3.0 0.00 0.00 0.00 63 1015.4
20260507053031 59 355 0.0 5.0 0.00 0.00 0.00 64 1015.2
20260507051530 59 342 0.0 1.0 0.00 0.00 0.00 65 1015.1
20260507050031 59 342 0.0 1.0 0.00 0.00 0.00 65 1015.1
20260507044529 59 158 0.0 0.0 0.00 0.00 0.00 67 1015.1
20260507043026 58 159 0.0 0.0 0.00 0.00 0.00 68 1014.7
20260507041523 57 159 0.0 0.0 0.00 0.00 0.00 69 1014.5
20260507040020 57 159 0.0 1.0 0.00 0.00 0.00 69 1014.4
20260507034520 57 33 0.0 0.0 0.00 0.00 0.00 69 1014.1
20260507033019 57 25 0.0 0.0 0.00 0.00 0.00 69 1013.9
20260507031515 57 19 0.0 1.0 0.00 0.00 0.00 70 1013.8
20260507030014 57 12 0.0 2.0 0.00 0.00 0.00 70 1013.7
20260507024513 58 5 0.0 1.0 0.00 0.00 0.00 71 1014.0
20260507023011 58 11 0.0 2.0 0.00 0.00 0.00 72 1013.9
20260507021510 58 27 0.0 1.0 0.00 0.00 0.00 72 1013.9
20260507020011 58 9 0.0 0.0 0.00 0.00 0.00 72 1013.8
20260507014509 58 5 0.0 0.0 0.00 0.00 0.00 72 1013.8
20260507013006 58 25 0.0 0.0 0.00 0.00 0.00 72 1013.8
20260507011514 59 25 0.0 1.0 0.00 0.00 0.00 72 1013.6
20260507010003 59 15 0.0 0.0 0.00 0.00 0.00 72 1013.5
20260507004500 59 10 0.0 1.0 0.00 0.00 0.00 72 1013.3
20260507003111 59 10 0.0 2.0 0.00 0.00 0.00 72 1013.2